Date,TemperatureHighF,TemperatureAvgF,TemperatureLowF,DewpointHighF,DewpointAvgF,DewpointLowF,HumidityHigh,HumidityAvg,HumidityLow,PressureMaxIn,PressureMinIn,WindSpeedMaxMPH,WindSpeedAvgMPH,GustSpeedMaxMPH,PrecipitationSumIn
2013-1-1,35.8,33.9,31.6,33.8,32.1,27.7,97,93,85,30.13,30.02,12,3,12,0.07
2013-1-2,37.2,28.6,22.3,28.3,23.4,20.2,93,81,60,30.24,30.11,14,3,14,0.01
2013-1-3,40.4,28.2,17.9,25.6,21.5,16.3,94,77,45,30.37,30.21,27,4,27,0.00
2013-1-4,38.8,32.9,25.2,27.6,25.1,21.7,89,73,61,30.39,30.33,30,8,30,0.00
2013-1-5,47.0,33.5,20.4,31.4,26.1,18.8,94,76,48,30.39,30.17,16,3,16,0.00
2013-1-6,42.8,37.1,28.0,34.7,29.3,21.9,79,73,69,30.36,30.03,33,9,33,0.00
2013-1-7,43.2,30.6,21.0,29.1,24.3,19.1,93,79,56,30.46,30.24,21,3,21,0.00
2013-1-8,55.2,36.7,22.1,36.1,29.1,20.1,93,76,47,30.33,30.22,26,3,26,0.00
2013-1-9,56.8,46.0,35.2,46.7,40.8,31.4,94,82,66,30.48,30.22,15,4,15,0.00
2013-1-10,51.6,43.4,36.0,48.5,40.3,34.3,96,89,71,30.49,30.06,21,4,21,0.39
2013-1-11,67.2,58.1,51.0,55.6,52.1,48.0,94,82,56,30.06,29.85,39,7,39,0.44
2013-1-12,65.8,61.8,54.4,63.7,60.1,53.0,98,94,90,29.99,29.77,16,4,16,0.04
2013-1-13,67.0,56.5,36.7,61.5,54.3,34.1,97,92,77,30.16,29.74,33,6,33,2.39
2013-1-14,36.6,30.1,26.3,34.3,25.9,22.1,91,84,77,30.47,30.16,22,7,22,0.00
2013-1-15,34.0,29.9,26.0,30.6,26.0,22.7,94,86,76,30.39,30.09,24,8,24,0.01
2013-1-16,33.6,32.5,31.3,31.5,30.9,30.0,96,93,90,30.16,30.02,12,4,12,0.00
2013-1-17,41.2,34.0,30.8,33.7,30.2,25.0,94,86,71,30.43,30.15,22,4,22,0.01
2013-1-18,43.7,32.6,22.6,26.6,22.4,18.2,84,67,47,30.58,30.34,20,5,20,0.00
2013-1-19,55.4,45.5,35.6,32.1,28.2,25.1,66,52,34,30.34,30.03,39,12,39,0.00
2013-1-20,47.2,38.8,25.3,33.8,20.3,8.8,74,49,25,30.25,30.03,28,8,28,0.00
2013-1-21,31.5,24.5,15.3,18.4,14.5,1.3,81,66,31,30.33,30.15,36,6,36,0.00
2013-1-22,21.8,15.7,10.7,3.4,0.1,-3.1,61,50,36,30.48,30.32,24,7,24,0.00
2013-1-23,34.7,23.5,11.3,19.4,10.5,3.0,78,58,41,30.40,30.07,18,4,18,0.00
2013-1-24,29.0,23.2,17.4,19.5,6.2,-1.7,71,49,29,30.55,30.11,38,8,38,0.00
2013-1-25,28.2,24.7,21.7,24.6,17.8,6.5,91,76,50,30.40,30.04,20,6,20,0.00
2013-1-26,39.2,28.7,21.0,25.3,21.5,18.5,96,76,46,30.40,30.16,24,4,24,0.00
2013-1-27,46.0,34.5,22.0,40.7,26.6,18.1,93,74,46,30.40,30.15,18,4,18,0.20
2013-1-28,56.0,51.0,42.6,52.9,47.0,40.6,94,86,71,30.15,30.03,32,9,32,0.16
2013-1-29,68.5,61.3,54.9,59.6,55.5,51.0,88,81,72,30.04,29.63,36,9,36,0.00
2013-1-30,68.2,54.6,33.4,61.0,50.1,25.8,97,85,72,29.66,29.32,44,11,44,0.99
2013-1-31,33.9,30.2,21.3,28.3,22.2,13.2,94,72,59,30.09,29.66,39,14,39,0.00
2013-2-1,21.3,16.1,7.8,14.4,6.7,-0.2,83,67,54,30.50,30.09,40,7,40,0.00
2013-2-2,35.4,22.8,15.0,29.7,17.8,9.9,91,81,67,30.41,30.06,24,5,24,0.01
2013-2-3,30.6,28.0,21.5,25.7,22.1,16.4,84,78,70,30.19,29.99,30,7,30,0.00
2013-2-4,43.2,30.9,15.0,40.2,25.8,12.8,96,82,55,30.17,29.87,21,4,21,0.13
2013-2-5,50.6,41.0,35.9,40.2,37.7,33.1,96,89,52,30.05,29.88,24,5,24,0.00
2013-2-6,45.4,35.9,25.6,33.4,30.4,24.2,96,81,61,30.27,30.05,12,3,12,0.00
2013-2-7,65.5,48.0,34.9,41.8,35.3,30.5,86,65,37,30.21,29.86,15,5,16,0.00
2013-2-8,49.9,39.6,34.2,46.9,34.7,28.9,94,82,68,30.34,29.82,34,8,34,0.07
2013-2-9,44.8,35.0,26.1,28.9,24.7,21.9,87,67,43,30.45,30.22,18,5,18,0.00
2013-2-10,58.8,45.4,34.2,48.7,34.5,22.8,93,67,39,30.23,29.84,32,6,32,0.09
2013-2-11,55.4,50.0,40.0,52.3,37.2,27.8,94,63,41,30.10,29.83,38,14,40,0.00
2013-2-12,50.2,39.8,27.9,31.3,28.0,23.8,87,64,39,30.17,29.91,16,4,16,0.00
2013-2-13,40.7,35.9,31.4,35.0,31.1,29.1,94,82,70,29.96,29.77,16,4,20,0.06
2013-2-14,56.2,42.5,31.9,39.2,33.9,29.7,92,74,44,30.01,29.88,33,10,33,0.00
2013-2-15,43.3,37.3,27.4,35.6,30.5,21.4,90,77,56,30.18,30.01,32,5,32,0.01
2013-2-16,33.2,26.7,19.6,23.6,17.2,8.6,94,69,39,30.18,30.07,33,6,33,0.00
2013-2-17,36.7,26.7,19.2,17.2,13.0,6.1,80,58,29,30.29,30.16,24,4,24,0.00
2013-2-18,61.4,43.8,24.2,40.1,27.2,14.4,76,53,37,30.25,29.78,48,9,48,0.09
2013-2-19,47.3,37.0,25.4,41.3,27.5,15.3,91,69,45,30.15,29.71,40,14,40,0.16
2013-2-20,33.4,26.4,20.1,16.8,14.5,11.9,72,61,46,30.30,30.15,26,7,26,0.00
2013-2-21,37.1,27.7,18.0,28.2,19.4,13.2,87,72,54,30.36,30.02,32,8,32,0.00
2013-2-22,56.2,42.4,31.6,45.6,38.0,28.3,98,85,67,30.05,29.89,33,6,33,0.26
2013-2-23,47.9,39.7,33.7,38.2,28.8,23.6,87,67,40,30.00,29.88,18,5,18,0.00
2013-2-24,48.2,35.2,23.8,28.9,25.4,-35.1,89,69,45,30.14,29.94,16,4,18,0.00
2013-2-25,49.2,38.1,27.5,28.2,25.3,21.9,84,61,42,30.15,29.82,28,10,28,0.00
2013-2-26,54.4,45.3,40.1,50.7,39.3,25.8,92,80,53,29.82,29.35,45,10,45,0.48
2013-2-27,40.4,38.9,33.3,37.6,36.0,33.1,100,89,84,29.78,29.57,38,14,38,0.05
2013-2-28,36.7,34.8,33.3,36.3,34.4,32.3,100,98,95,29.99,29.77,28,10,28,0.02
2013-3-1,38.6,35.3,32.8,36.3,34.7,32.3,100,98,88,30.03,29.95,15,5,15,0.07
2013-3-2,32.8,30.0,28.7,32.3,27.4,24.3,98,90,82,30.12,30.01,20,6,20,0.00
2013-3-3,36.6,29.6,21.3,27.4,24.6,19.5,99,82,59,30.12,30.07,15,5,18,0.00
2013-3-4,45.6,33.4,17.2,32.2,25.6,17.0,100,76,48,30.20,29.97,15,4,15,0.00
2013-3-5,45.8,40.2,30.4,45.8,37.6,29.9,100,91,69,29.97,29.55,42,8,42,0.55
2013-3-6,33.1,31.5,29.8,31.6,30.2,28.8,100,95,90,30.30,29.75,33,10,33,0.00
2013-3-7,37.0,33.8,31.4,33.0,31.6,30.3,99,92,79,30.39,30.27,12,3,12,0.01
2013-3-8,48.7,38.2,28.1,35.7,32.0,27.7,100,80,59,30.47,30.35,22,4,22,0.00
2013-3-9,63.9,38.7,30.6,43.8,32.6,29.2,96,81,41,30.36,30.05,18,4,18,0.00
2013-3-10,70.9,60.0,51.5,45.3,41.3,38.2,63,51,34,30.05,29.81,22,5,22,0.01
2013-3-11,60.1,50.1,39.7,55.7,47.2,37.0,100,91,55,29.88,29.64,28,7,28,0.87
2013-3-12,48.7,40.8,35.7,37.3,33.3,30.0,91,75,57,30.07,29.88,30,9,30,0.00
2013-3-13,39.9,32.6,28.5,34.9,26.8,21.8,98,79,61,30.37,30.05,38,10,38,0.00
2013-3-14,47.2,34.6,22.3,32.9,24.7,20.5,93,70,41,30.40,30.22,24,6,24,0.00
2013-3-15,60.5,43.6,30.5,46.9,37.0,29.8,99,79,57,30.22,29.77,18,5,18,0.00
2013-3-16,71.5,60.5,45.5,56.2,51.0,43.5,95,72,55,29.95,29.65,36,12,36,0.01
2013-3-17,45.5,36.7,33.7,44.0,36.3,33.5,100,98,92,30.09,29.92,18,8,21,0.90
2013-3-18,55.3,45.5,35.4,55.3,44.8,35.4,100,97,85,29.92,29.62,33,10,33,1.08
2013-3-19,48.8,40.6,33.9,38.8,28.3,19.9,95,65,33,30.15,29.87,36,11,36,0.00
2013-3-20,45.1,34.7,25.2,28.7,21.8,14.6,81,60,40,30.15,29.96,40,10,40,0.00
2013-3-21,35.5,26.2,20.6,20.1,17.0,15.0,92,69,47,30.07,29.98,26,6,26,0.00
2013-3-22,47.0,32.1,15.5,26.2,21.9,15.1,100,70,41,30.12,30.00,14,3,14,0.00
2013-3-23,55.1,41.5,36.8,35.1,29.1,24.8,80,62,44,30.05,29.81,20,3,20,0.00
2013-3-24,44.4,39.1,35.2,40.1,34.7,28.3,100,86,56,29.83,29.33,30,8,32,0.86
2013-3-25,39.2,33.8,31.2,38.2,32.5,30.1,100,95,86,29.99,29.44,38,14,38,0.01
2013-3-26,41.1,35.5,32.5,35.8,32.6,29.7,100,90,72,30.27,29.99,21,7,21,0.02
2013-3-27,44.2,37.4,28.9,32.2,28.9,26.4,91,72,55,30.35,30.27,24,5,24,0.00
2013-3-28,51.8,38.6,25.3,34.1,29.7,24.9,100,73,47,30.39,30.29,14,4,16,0.00
2013-3-29,58.7,42.7,28.5,43.8,35.6,28.2,100,79,43,30.33,30.19,21,4,21,0.00
2013-3-30,61.9,46.4,31.2,48.3,39.7,31.2,100,81,47,30.25,29.93,21,3,21,0.00
2013-3-31,61.4,51.6,47.0,51.8,47.9,44.0,100,88,63,29.93,29.78,24,6,24,0.10
2013-4-1,50.7,45.7,36.9,45.9,35.4,25.9,91,69,44,30.12,29.81,27,7,30,0.00
2013-4-2,50.1,39.2,26.2,28.2,23.6,20.4,86,56,32,30.27,30.12,21,4,22,0.00
2013-4-3,51.9,39.1,23.9,26.8,23.4,20.5,95,56,32,30.40,30.26,24,6,24,0.00
2013-4-4,53.2,44.5,35.5,37.4,29.3,22.6,71,55,48,30.29,29.99,21,5,21,0.00
2013-4-5,66.4,49.3,28.9,41.6,35.2,28.6,100,63,35,30.10,29.98,27,4,27,0.00
2013-4-6,72.6,55.4,38.9,47.5,39.3,31.8,79,56,37,30.16,29.90,22,5,22,0.00
2013-4-7,72.3,63.8,57.6,57.8,50.0,41.5,70,61,53,29.97,29.89,34,10,34,0.02
2013-4-8,73.7,63.5,50.2,60.9,54.6,47.7,92,73,60,29.96,29.86,42,7,42,0.00
2013-4-9,80.8,68.7,53.8,64.8,59.8,52.2,96,75,55,30.03,29.91,40,8,40,0.00
2013-4-10,83.9,72.7,62.4,68.0,63.2,59.0,93,73,55,29.94,29.74,38,8,38,0.00
2013-4-11,72.8,66.1,59.1,63.5,60.2,57.7,97,82,64,29.77,29.49,24,5,24,0.70
2013-4-12,59.1,49.3,41.6,58.0,41.4,34.1,97,75,57,29.91,29.48,36,11,36,0.16
2013-4-13,62.4,48.7,35.2,40.0,36.2,31.9,89,65,39,30.01,29.91,32,8,32,0.00
2013-4-14,73.2,56.7,38.3,51.2,44.5,36.0,94,67,42,30.00,29.80,32,5,32,0.00
2013-4-15,71.8,63.1,57.2,57.4,54.2,50.5,86,73,59,29.94,29.86,21,5,21,0.00
2013-4-16,81.7,69.3,56.5,68.5,61.4,53.4,92,77,62,30.09,29.90,40,8,40,0.06
2013-4-17,76.5,66.0,60.4,67.2,62.3,58.7,96,88,72,30.11,29.90,30,5,30,0.37
2013-4-18,83.8,73.2,63.1,65.0,60.2,55.5,87,66,42,29.90,29.57,27,8,34,0.00
2013-4-19,74.4,50.6,39.7,62.9,42.4,33.1,95,74,57,30.00,29.36,39,12,39,0.81
2013-4-20,56.4,45.6,35.9,36.5,32.1,26.9,87,62,35,30.33,30.00,27,7,27,0.00
2013-4-21,59.7,48.3,35.9,37.5,32.4,28.7,75,55,38,30.45,30.28,26,6,26,0.00
2013-4-22,72.8,56.5,36.7,48.3,39.9,31.5,86,56,36,30.29,30.07,24,3,24,0.00
2013-4-23,70.8,59.3,43.2,55.6,49.5,41.0,94,71,56,30.09,29.85,27,5,27,0.00
2013-4-24,65.0,53.3,38.8,57.1,47.2,35.8,95,80,67,30.27,29.76,27,8,36,0.84
2013-4-25,61.3,47.2,30.4,41.5,36.3,29.6,97,70,43,30.39,30.27,21,5,26,0.00
2013-4-26,62.1,50.8,34.9,44.4,37.3,32.4,95,63,38,30.47,30.33,16,3,16,0.00
2013-4-27,60.0,54.5,49.6,54.5,48.9,42.2,95,82,69,30.37,30.04,22,3,22,0.33
2013-4-28,69.8,60.4,53.9,61.6,56.0,51.5,96,86,72,30.04,29.83,32,7,32,0.41
2013-4-29,66.5,58.7,52.9,56.8,54.3,51.0,95,86,68,30.02,29.92,12,4,12,0.00
2013-4-30,80.0,63.7,45.5,60.9,54.2,45.0,98,75,44,30.05,29.97,16,3,16,0.00
2013-5-1,84.2,69.3,52.3,62.7,57.9,51.4,97,71,42,30.16,30.05,16,3,16,0.00
2013-5-2,78.6,67.6,56.4,61.0,56.7,51.8,86,69,50,30.19,30.06,18,3,18,0.00
2013-5-3,78.5,68.0,58.6,61.7,56.3,45.7,85,67,48,30.07,29.91,27,5,27,0.00
2013-5-4,70.2,61.0,54.1,53.4,48.8,43.1,96,66,43,30.00,29.91,22,6,22,0.30
2013-5-5,54.6,52.0,48.7,53.4,50.4,46.7,97,94,92,29.98,29.86,30,10,30,1.76
2013-5-6,68.3,57.8,54.0,58.7,54.3,51.2,94,88,69,29.93,29.82,32,9,32,0.10
2013-5-7,73.3,62.7,55.1,59.5,56.5,53.1,96,82,57,29.97,29.89,26,3,26,0.03
2013-5-8,76.0,63.1,54.6,62.6,58.1,53.8,98,86,54,30.02,29.92,26,4,26,0.23
2013-5-9,81.0,68.8,54.7,62.7,58.7,53.1,97,73,42,30.04,29.94,24,4,24,0.01
2013-5-10,69.4,64.6,62.0,63.2,61.0,58.0,96,89,74,29.96,29.83,24,6,24,1.06
2013-5-11,63.4,58.5,54.3,62.0,54.1,46.2,96,86,67,29.99,29.85,22,6,22,0.01
2013-5-12,60.2,51.8,40.8,46.1,37.0,30.1,95,60,37,30.16,29.99,28,6,28,0.00
2013-5-13,65.3,52.6,35.9,41.9,36.6,31.3,92,58,31,30.22,30.13,27,5,27,0.00
2013-5-14,82.5,63.0,42.1,61.7,50.9,39.6,95,68,46,30.18,29.87,33,6,33,0.00
2013-5-15,86.8,76.2,65.4,64.2,59.0,50.9,82,57,36,29.97,29.85,34,12,34,0.00
2013-5-16,74.5,66.5,61.4,66.4,59.3,50.7,98,79,47,30.01,29.89,24,5,24,1.16
2013-5-17,78.2,64.6,60.3,68.8,62.0,59.1,99,92,54,30.07,29.97,16,2,16,0.00
2013-5-18,81.7,70.7,64.8,70.4,66.3,63.5,97,86,66,30.06,29.96,20,3,20,0.28
2013-5-19,86.3,73.7,62.3,72.6,68.1,61.6,98,84,59,30.02,29.91,15,3,15,0.02
2013-5-20,86.7,76.2,65.7,73.9,69.0,63.8,94,79,59,30.04,29.91,21,5,21,0.00
2013-5-21,85.8,73.9,65.4,71.4,67.4,63.3,94,81,54,29.97,29.83,30,6,30,0.07
2013-5-22,79.8,69.9,62.6,69.4,64.8,60.9,97,85,67,29.90,29.77,26,6,26,0.07
2013-5-23,72.5,64.8,56.7,65.1,60.2,53.2,97,86,60,30.08,29.84,24,6,24,0.11
2013-5-24,68.0,58.2,49.3,53.5,47.3,44.1,90,69,45,30.34,30.07,30,7,30,0.00
2013-5-25,68.8,57.5,42.3,52.6,47.6,41.5,98,73,45,30.40,30.22,12,2,12,0.00
2013-5-26,74.5,63.0,54.0,55.8,53.2,50.0,93,72,49,30.32,30.19,15,3,15,0.01
2013-5-27,84.9,71.2,60.1,64.5,57.4,53.1,80,64,36,30.21,30.00,27,6,28,0.00
2013-5-28,86.2,76.9,67.3,66.8,62.5,60.0,81,62,44,30.07,29.96,34,8,34,0.00
2013-5-29,87.0,76.6,67.2,69.6,64.8,59.8,81,68,53,30.13,30.01,22,5,22,0.00
2013-5-30,88.9,78.0,65.5,71.6,67.0,62.1,90,70,53,30.16,30.02,30,5,30,0.00
2013-5-31,83.7,75.2,70.0,72.2,68.1,64.7,91,79,64,30.08,29.96,30,5,30,0.09
2013-6-1,82.3,74.4,70.4,72.7,68.5,65.2,94,82,69,29.99,29.81,38,7,38,0.33
2013-6-2,79.8,71.7,64.9,68.0,64.3,60.0,93,78,58,29.94,29.87,20,6,20,0.00
2013-6-3,73.7,66.3,57.5,60.3,57.7,53.7,92,75,56,30.07,29.93,16,5,18,0.00
2013-6-4,77.8,65.8,52.3,60.7,56.3,50.9,96,73,52,30.14,30.05,21,5,21,0.00
2013-6-5,85.6,70.9,58.1,68.8,60.5,50.9,94,70,51,30.08,29.86,16,4,16,0.00
2013-6-6,80.2,68.8,66.1,70.6,66.2,64.0,96,92,64,29.89,29.76,22,4,22,0.35
2013-6-7,80.2,69.4,62.3,65.5,62.3,59.4,96,80,52,29.88,29.79,18,5,18,0.00
2013-6-8,82.0,71.1,61.7,67.7,63.4,59.7,93,78,60,30.05,29.87,15,3,15,0.00
2013-6-9,82.8,69.9,58.8,70.9,64.8,57.8,97,85,58,30.08,29.92,28,4,28,0.01
2013-6-10,77.2,71.0,65.2,69.4,65.6,63.1,97,84,63,29.93,29.82,30,7,30,1.31
2013-6-11,85.0,75.0,62.9,69.8,66.2,61.5,96,76,56,30.01,29.92,22,5,22,0.00
2013-6-12,92.2,82.3,70.0,77.8,72.6,67.4,93,74,55,29.96,29.79,32,8,32,0.00
2013-6-13,83.0,77.2,68.0,74.1,68.8,57.7,97,76,56,29.95,29.66,45,10,45,0.76
2013-6-14,83.0,70.4,56.9,65.2,60.0,54.4,93,71,49,30.06,29.92,16,3,16,0.00
2013-6-15,85.9,74.0,59.0,66.7,62.6,58.1,97,71,45,30.14,29.98,24,4,24,0.00
2013-6-16,83.0,73.4,66.1,72.2,66.9,63.5,97,81,66,30.07,29.97,21,4,21,0.62
2013-6-17,88.0,75.2,65.6,74.9,69.6,64.7,98,84,62,30.00,29.87,28,2,28,0.08
2013-6-18,87.0,73.1,64.9,70.2,66.3,62.4,97,81,53,29.99,29.84,32,4,32,0.29
2013-6-19,83.0,71.6,61.4,67.2,63.5,60.3,97,78,53,30.12,29.98,18,4,18,0.00
2013-6-20,88.5,72.3,60.1,68.4,63.1,58.4,95,75,42,30.21,30.12,15,3,15,0.00
2013-6-21,89.4,77.2,63.2,72.3,67.0,61.8,96,73,49,30.22,30.12,16,3,16,0.00
2013-6-22,91.5,78.8,66.1,74.1,68.9,64.9,97,74,47,30.20,30.06,16,4,21,0.00
2013-6-23,89.5,73.2,66.8,72.3,67.9,65.6,97,85,49,30.16,30.05,24,3,24,0.00
2013-6-24,87.1,71.3,67.0,75.5,68.5,65.8,97,91,64,30.16,30.06,38,2,38,0.60
2013-6-25,90.3,78.9,66.3,76.8,72.3,65.5,98,81,60,30.10,29.93,21,5,21,0.00
2013-6-26,86.5,74.7,67.7,76.1,70.5,65.9,97,87,69,30.00,29.77,36,6,36,1.95
2013-6-27,88.5,72.2,68.3,76.7,69.6,67.5,98,92,63,29.84,29.75,21,5,21,0.23
2013-6-28,87.2,79.0,67.2,72.7,67.0,59.4,92,69,42,29.76,29.61,32,8,32,0.00
2013-6-29,82.8,71.6,63.9,69.8,64.7,61.6,95,80,58,29.68,29.60,22,5,22,0.25
2013-6-30,83.6,71.7,63.0,68.5,64.5,62.4,98,80,50,29.82,29.67,16,3,16,0.01
2013-7-1,80.8,70.2,63.2,71.4,66.5,62.2,97,89,64,29.93,29.81,28,2,28,0.32
2013-7-2,84.6,71.6,60.9,71.7,66.3,60.3,98,85,59,30.04,29.91,16,1,16,0.02
2013-7-3,80.7,74.1,67.5,71.5,69.1,66.0,97,85,70,30.13,30.04,12,1,12,0.00
2013-7-4,72.7,69.4,65.6,69.8,67.3,64.4,97,93,85,30.16,30.08,12,1,12,1.45
2013-7-5,79.5,68.4,65.6,73.5,67.0,64.8,98,96,79,30.16,30.10,15,1,0,1.52
2013-7-6,73.3,70.3,67.2,71.1,68.7,66.3,98,95,86,30.15,30.09,15,2,15,3.60
2013-7-7,85.3,74.3,66.0,71.2,68.0,65.4,98,82,58,30.14,30.05,15,2,15,0.00
2013-7-8,88.8,77.0,63.7,74.4,69.6,63.1,98,80,56,30.16,30.06,16,2,16,0.00
2013-7-9,90.0,81.8,74.0,76.8,73.7,71.0,93,77,60,30.12,30.01,22,4,22,0.00
2013-7-10,90.6,78.2,70.6,79.5,73.8,67.9,97,87,68,30.03,29.85,30,4,30,0.52
2013-7-11,84.1,75.0,68.9,74.2,69.1,63.0,98,83,58,30.01,29.94,24,3,24,0.00
2013-7-12,81.1,71.5,59.7,63.3,60.7,56.7,92,70,50,30.10,30.01,26,4,26,0.00
2013-7-13,82.2,73.0,63.8,70.0,65.3,60.3,93,78,62,30.12,30.04,18,3,18,0.00
2013-7-14,91.6,78.7,69.0,75.8,71.2,66.9,94,79,57,30.21,30.10,15,2,8,0.00
2013-7-15,91.8,82.0,71.2,75.0,72.4,69.6,95,75,54,30.30,30.21,15,2,0,0.00
2013-7-16,94.5,82.6,69.5,76.0,72.8,68.6,97,75,50,30.34,30.25,8,1,0,0.00
2013-7-17,96.4,82.4,72.0,81.2,74.7,70.0,98,79,51,30.31,30.17,26,2,10,0.05
2013-7-18,93.5,81.8,73.3,79.2,75.2,70.9,98,82,56,30.22,30.04,21,1,21,0.00
2013-7-19,91.2,81.8,72.9,76.0,72.6,68.8,91,75,53,30.07,29.92,24,4,24,0.00
2013-7-20,90.8,81.6,73.7,75.6,73.2,70.1,93,77,56,29.97,29.87,26,6,26,0.00
2013-7-21,88.3,78.7,71.4,74.4,71.8,69.3,94,80,61,29.98,29.88,16,1,16,0.09
2013-7-22,81.0,75.0,71.6,73.9,71.5,69.2,96,89,75,29.94,29.79,19,3,19,0.98
2013-7-23,88.2,78.0,70.4,75.6,72.5,68.8,95,84,63,29.88,29.76,26,5,26,1.07
2013-7-24,80.2,70.7,63.4,69.0,63.5,59.4,96,79,58,30.00,29.83,16,3,16,0.00
2013-7-25,80.3,69.6,59.1,63.3,60.2,56.2,92,74,50,30.10,30.00,16,3,16,0.00
2013-7-26,82.5,70.1,55.5,65.2,61.2,54.4,96,76,50,30.12,30.00,14,2,14,0.00
2013-7-27,76.5,70.2,66.4,67.0,65.0,60.0,94,84,70,30.01,29.88,22,3,22,0.05
2013-7-28,76.9,66.2,53.6,60.3,54.0,49.1,91,67,44,30.11,29.95,22,3,22,0.00
2013-7-29,81.4,67.9,53.1,62.5,58.2,51.7,96,74,49,30.22,30.11,21,3,21,0.00
2013-7-30,81.3,69.7,59.5,67.8,62.9,58.1,96,81,53,30.26,30.14,10,1,10,0.04
2013-7-31,77.2,70.2,64.4,69.5,66.4,62.3,95,88,75,30.17,29.98,16,2,16,0.31
2013-8-1,83.5,73.8,64.4,69.4,66.0,60.7,96,79,50,30.02,29.96,18,3,19,0.01
2013-8-2,84.3,72.4,59.4,66.4,62.6,58.0,96,74,47,30.06,30.00,18,2,18,0.00
2013-8-3,85.0,76.0,69.6,73.0,68.6,64.8,92,78,64,30.05,29.97,19,3,19,0.00
2013-8-4,80.5,71.1,62.9,68.3,60.6,56.3,95,71,47,30.15,30.05,21,3,21,0.00
2013-8-5,83.3,69.9,55.1,63.2,58.5,53.9,96,70,41,30.15,29.98,14,2,14,0.00
2013-8-6,85.1,75.6,67.2,72.7,67.0,60.6,90,75,60,30.00,29.93,16,2,16,0.00
2013-8-7,88.0,78.1,71.9,76.7,72.8,69.6,95,84,66,29.98,29.88,19,2,19,0.02
2013-8-8,85.5,77.7,72.8,76.1,73.3,70.9,95,87,71,30.00,29.90,21,4,21,0.15
2013-8-9,84.5,76.6,73.8,75.4,72.9,71.2,94,89,71,30.05,29.94,22,5,22,0.42
2013-8-10,83.0,76.7,72.5,74.3,72.1,69.6,96,86,67,30.13,30.04,8,1,8,0.45
2013-8-11,88.5,78.7,72.4,74.9,72.2,69.2,96,82,57,30.12,30.04,19,2,19,0.00
2013-8-12,83.1,73.9,66.0,75.8,70.0,64.8,96,88,70,30.10,29.92,19,1,19,0.21
2013-8-13,80.7,73.1,64.5,72.2,67.0,56.5,96,82,63,30.06,29.90,24,3,24,0.03
2013-8-14,74.3,64.2,51.2,56.7,53.6,49.3,95,70,47,30.18,30.06,18,4,19,0.00
2013-8-15,76.8,64.2,50.6,58.3,54.5,48.7,94,73,49,30.19,30.08,19,3,19,0.00
2013-8-16,81.3,68.5,56.8,63.3,58.6,54.4,93,73,53,30.16,30.09,16,3,16,0.00
2013-8-17,85.1,71.6,62.1,69.2,61.9,57.6,86,73,50,30.19,30.11,11,2,19,0.00
2013-8-18,83.4,69.5,60.5,68.4,63.3,59.1,95,82,57,30.19,30.10,11,1,11,0.00
2013-8-19,86.8,74.7,65.5,71.0,67.7,63.9,96,81,54,30.16,30.07,13,1,13,0.00
2013-8-20,86.8,74.1,64.9,72.9,68.0,63.4,96,83,59,30.18,30.10,19,2,19,0.00
2013-8-21,88.8,74.0,66.9,73.7,69.2,65.6,96,86,58,30.19,30.09,32,2,32,0.07
2013-8-22,89.3,77.4,67.7,74.8,70.3,65.9,96,81,53,30.15,30.03,18,2,18,0.11
2013-8-23,87.3,76.1,68.9,72.5,69.0,66.2,96,81,54,30.14,30.04,14,2,14,0.01
2013-8-24,88.1,74.9,63.1,70.4,64.1,59.1,95,73,41,30.27,30.14,18,2,18,0.00
2013-8-25,88.9,74.1,58.9,68.2,63.2,57.5,95,72,44,30.36,30.24,13,1,13,0.00
2013-8-26,89.4,76.5,63.8,72.6,68.4,62.2,96,78,52,30.29,30.11,19,3,19,0.00
2013-8-27,90.5,80.0,70.7,75.9,72.7,68.3,93,79,59,30.13,29.99,21,5,21,0.00
2013-8-28,92.8,82.2,73.0,74.3,71.9,69.2,94,73,48,30.03,29.91,29,6,29,0.00
2013-8-29,89.7,79.9,72.1,74.3,71.4,68.8,95,77,54,30.03,29.95,13,2,13,0.00
2013-8-30,92.8,78.4,65.7,73.4,69.5,64.5,96,77,48,30.01,29.86,16,2,16,0.00
2013-8-31,92.3,75.8,68.5,80.3,71.7,66.5,95,88,61,29.94,29.78,32,4,42,2.79
2013-9-1,85.2,75.4,67.8,73.3,69.7,66.2,96,83,65,29.87,29.80,21,3,21,0.02
2013-9-2,86.5,76.4,69.6,74.7,71.3,68.1,96,85,64,29.91,29.82,27,4,27,0.27
2013-9-3,79.6,69.9,60.5,69.4,61.9,57.2,94,77,49,30.09,29.89,16,3,21,0.00
2013-9-4,81.8,67.2,53.4,64.0,59.2,52.3,96,78,51,30.18,30.09,11,1,11,0.01
2013-9-5,84.8,70.4,57.2,68.1,62.8,56.0,96,79,53,30.23,30.15,10,1,10,0.00
2013-9-6,84.8,71.1,60.5,65.0,61.0,56.5,95,73,43,30.24,30.12,13,2,13,0.00
2013-9-7,82.0,64.5,57.4,68.6,60.2,56.0,95,87,62,30.13,30.09,13,1,13,0.00
2013-9-8,90.4,73.3,67.5,72.1,67.8,66.0,95,85,48,30.02,29.94,11,0,11,0.00
2013-9-9,91.0,78.9,67.6,73.5,69.9,66.1,95,76,53,30.07,29.99,19,3,19,0.00
2013-9-10,91.8,81.1,71.5,75.5,72.3,68.9,93,76,57,30.17,30.06,19,3,19,0.00
2013-9-11,90.1,75.7,70.5,75.7,71.3,68.5,96,87,59,30.18,30.06,19,2,19,0.00
2013-9-12,82.7,74.2,67.5,73.3,68.2,64.2,95,82,62,30.06,29.89,29,3,29,0.17
2013-9-13,71.2,63.6,50.8,65.4,52.8,46.4,91,69,47,30.10,29.92,27,6,27,0.00
2013-9-14,73.3,58.7,46.2,51.3,47.7,44.0,93,70,39,30.19,30.09,14,3,16,0.00
2013-9-15,80.0,63.2,45.9,61.7,54.4,44.0,95,75,50,30.17,30.07,26,3,26,0.00
2013-9-16,72.5,66.2,57.3,62.9,60.7,54.3,92,83,70,30.27,30.09,18,3,18,0.03
2013-9-17,77.7,64.1,53.2,57.9,54.8,51.0,94,75,44,30.31,30.16,18,3,21,0.00
2013-9-18,76.3,66.9,57.9,68.3,62.8,54.9,93,87,75,30.18,30.09,18,2,18,0.01
2013-9-19,81.2,71.4,63.8,71.8,67.3,62.2,96,87,72,30.16,30.00,21,2,21,0.20
2013-9-20,85.9,75.2,66.1,70.2,68.0,64.0,95,80,57,30.03,29.82,16,4,26,0.03
2013-9-21,73.3,66.0,55.4,69.0,61.8,51.1,96,87,53,29.89,29.72,21,4,24,1.60
2013-9-22,71.0,58.3,47.1,53.5,50.4,45.7,96,77,49,30.03,29.89,16,2,21,0.00
2013-9-23,73.2,59.0,48.2,53.6,49.9,45.7,94,74,47,30.11,30.02,21,3,21,0.01
2013-9-24,80.8,64.4,51.7,64.3,56.2,48.2,88,76,54,30.08,29.89,14,3,14,0.00
2013-9-25,78.2,67.4,60.2,64.3,60.4,56.6,91,79,59,29.92,29.84,18,2,18,0.00
2013-9-26,80.5,64.0,49.4,61.1,55.8,47.5,95,77,47,30.06,29.91,13,1,13,0.00
2013-9-27,82.3,65.2,50.4,63.9,55.1,49.0,96,75,37,30.17,30.06,11,1,11,0.00
2013-9-28,83.8,65.1,50.3,62.8,56.6,48.8,95,77,47,30.19,30.06,14,1,14,0.00
2013-9-29,72.5,63.4,54.8,61.5,58.3,53.3,96,84,65,30.09,30.01,21,3,22,0.00
2013-9-30,77.2,67.7,60.4,62.3,60.4,58.1,93,78,59,30.05,29.96,21,2,21,0.00
2013-10-1,80.6,67.8,57.4,66.0,61.3,55.3,95,81,59,30.11,30.02,18,2,18,0.00
2013-10-2,83.8,70.2,57.8,71.9,65.4,56.4,96,86,66,30.13,30.03,18,1,18,0.00
2013-10-3,83.4,73.6,68.6,70.6,67.8,64.6,95,83,58,30.10,30.01,13,2,13,0.01
2013-10-4,85.8,73.6,63.6,69.7,66.4,61.8,95,79,56,30.11,30.02,18,2,18,0.00
2013-10-5,82.3,72.4,69.1,71.9,67.9,65.5,96,86,67,30.07,29.94,19,2,19,1.65
2013-10-6,72.5,65.3,54.7,69.4,63.1,52.4,95,93,86,29.95,29.75,29,4,29,1.58
2013-10-7,64.7,54.6,46.1,52.9,47.2,44.1,95,78,51,30.18,29.88,21,4,21,0.00
2013-10-8,68.5,53.9,41.0,51.1,45.9,39.7,96,77,46,30.28,30.18,27,3,27,0.01
2013-10-9,78.0,58.2,43.7,57.9,49.0,41.8,95,75,41,30.25,30.15,11,1,11,0.00
2013-10-10,75.3,57.6,42.7,53.7,47.8,41.4,96,74,38,30.21,30.08,10,1,10,0.00
2013-10-11,80.5,60.5,45.0,57.5,51.4,43.7,96,76,43,30.13,30.03,11,1,11,0.00
2013-10-12,81.2,62.8,48.6,60.7,54.5,47.1,96,78,43,30.14,30.04,14,1,14,0.00
2013-10-13,76.9,62.7,51.7,64.7,57.5,50.2,96,84,63,30.28,30.13,21,2,21,0.00
2013-10-14,75.0,60.5,48.6,58.2,52.4,44.5,94,76,50,30.32,30.15,18,2,18,0.00
2013-10-15,74.1,65.6,56.1,62.9,60.3,53.5,95,84,66,30.18,29.94,14,2,18,0.00
2013-10-16,65.8,63.5,57.2,62.4,60.8,52.4,94,91,84,29.99,29.92,18,2,18,0.18
2013-10-17,58.6,53.0,44.3,52.4,48.8,42.7,95,86,71,30.03,29.90,21,2,21,0.12
2013-10-18,66.3,50.4,36.9,51.5,43.7,35.8,97,80,48,30.11,29.98,18,2,18,0.02
2013-10-19,52.1,47.1,40.5,50.1,44.0,38.8,94,89,76,30.07,29.87,32,2,32,0.22
2013-10-20,62.9,47.5,35.0,45.9,39.9,33.5,95,78,47,30.13,30.04,24,3,24,0.01
2013-10-21,68.0,52.2,35.9,47.9,41.7,34.6,95,71,39,30.09,29.94,27,4,27,0.00
2013-10-22,57.9,48.5,35.4,48.9,37.3,28.7,94,68,37,30.09,29.86,19,2,27,0.05
2013-10-23,48.2,44.7,40.0,44.1,37.6,32.9,90,77,59,30.10,29.77,35,7,35,0.01
2013-10-24,47.7,40.6,36.2,36.9,34.1,30.4,85,78,58,30.34,30.09,29,4,29,0.05
2013-10-25,49.7,37.7,29.0,31.8,28.4,26.0,90,71,42,30.51,30.34,16,2,16,0.00
2013-10-26,55.9,41.1,25.6,37.8,31.3,23.2,92,70,47,30.36,30.01,32,6,32,0.00
2013-10-27,62.0,45.2,30.0,41.8,35.8,28.2,95,73,38,30.15,30.06,18,2,18,0.00
2013-10-28,66.8,48.2,37.6,50.3,41.7,34.8,94,80,49,30.31,30.13,11,1,11,0.00
2013-10-29,57.1,47.3,35.0,54.2,45.6,33.7,96,94,90,30.37,30.21,5,0,5,0.06
2013-10-30,69.3,61.9,55.9,64.4,59.6,54.2,96,92,84,30.22,30.05,16,2,16,1.14
2013-10-31,69.9,65.4,62.7,63.8,59.4,56.2,93,81,70,30.05,29.43,58,8,58,1.00
2013-11-1,65.6,58.6,51.6,63.4,50.0,45.5,93,74,53,29.78,29.47,48,8,48,0.22
2013-11-2,56.9,50.4,43.0,46.1,41.6,36.9,89,72,57,30.14,29.78,24,5,24,0.01
2013-11-3,57.6,49.2,35.0,42.6,37.5,32.9,94,66,43,30.39,30.13,11,2,13,0.00
2013-11-4,63.7,49.2,36.7,45.8,39.8,33.2,91,71,46,30.43,30.32,22,2,22,0.00
2013-11-5,64.3,54.6,46.9,46.5,42.8,39.8,85,65,48,30.43,30.25,11,1,11,0.00
2013-11-6,71.0,59.8,50.0,60.2,52.0,40.0,93,76,64,30.25,30.00,27,6,35,0.32
2013-11-7,51.6,44.1,36.7,49.4,38.6,27.1,92,82,42,30.31,30.03,22,6,22,0.08
2013-11-8,56.2,41.2,29.7,35.2,30.7,26.9,92,69,36,30.44,30.29,16,2,16,0.00
2013-11-9,62.2,48.4,32.9,35.1,31.9,27.2,88,56,31,30.30,30.12,35,8,35,0.00
2013-11-10,56.4,46.7,31.8,39.2,31.9,25.9,89,59,32,30.36,30.18,32,5,32,0.00
2013-11-11,63.5,46.5,29.8,44.0,29.9,21.0,93,60,21,30.33,30.10,31,3,31,0.00
2013-11-12,47.7,32.3,23.4,43.7,23.7,16.9,92,72,46,30.65,30.17,37,9,37,0.04
2013-11-13,42.5,28.8,17.4,24.4,19.9,15.2,92,72,42,30.70,30.45,17,2,17,0.00
2013-11-14,54.7,39.4,23.6,25.7,21.7,19.0,84,53,26,30.45,30.21,29,4,29,0.00
2013-11-15,54.6,41.1,29.2,43.9,29.2,20.9,90,64,46,30.21,30.11,27,3,27,0.05
2013-11-16,61.7,54.1,44.6,55.5,50.3,42.8,94,87,79,30.14,29.91,24,4,24,0.00
2013-11-17,67.4,61.2,53.3,63.6,56.4,44.0,95,85,53,29.92,29.57,31,7,32,1.61
2013-11-18,56.2,49.0,39.6,44.5,36.6,27.7,81,63,41,30.20,29.81,41,7,41,0.00
2013-11-19,43.8,35.8,27.2,30.8,27.8,24.1,92,73,58,30.33,30.19,17,4,19,0.00
2013-11-20,57.2,40.5,29.1,36.3,30.2,24.3,83,68,42,30.32,30.20,14,3,14,0.00
2013-11-21,61.9,49.7,36.5,50.8,41.7,30.9,83,74,64,30.32,30.17,19,1,19,0.00
2013-11-22,56.5,51.6,41.7,54.8,48.5,36.2,95,89,80,30.34,30.16,22,6,22,0.18
2013-11-23,43.2,34.5,23.7,36.3,23.5,10.1,88,66,27,30.57,30.33,34,8,34,0.00
2013-11-24,29.3,22.7,16.1,16.0,12.0,8.6,81,64,48,30.72,30.55,22,3,22,0.00
2013-11-25,42.0,31.9,19.7,30.5,19.0,13.7,90,61,40,30.55,30.20,24,4,24,0.00
2013-11-26,35.0,33.0,31.3,33.1,31.1,28.6,94,93,90,30.23,29.91,17,3,17,0.23
2013-11-27,32.1,27.8,20.6,28.9,22.6,14.7,90,81,70,30.33,29.92,27,6,27,0.00
2013-11-28,38.0,25.0,14.5,22.1,16.9,11.2,88,73,50,30.48,30.32,24,3,24,0.00
2013-11-29,44.1,28.9,15.8,28.1,22.0,13.5,92,77,52,30.64,30.47,10,1,10,0.02
2013-11-30,54.6,37.0,23.5,32.9,26.6,19.6,90,69,42,30.50,30.21,29,3,29,0.00
2013-12-1,51.7,43.2,33.0,37.5,32.1,26.1,88,66,54,30.21,29.96,17,4,21,0.00
2013-12-2,58.1,43.6,31.5,42.6,37.0,28.8,92,79,56,29.95,29.74,10,1,10,0.00
2013-12-3,56.4,48.4,38.7,49.3,44.3,37.0,94,86,76,29.85,29.76,8,1,11,0.00
2013-12-4,67.0,58.0,46.8,59.3,53.4,44.4,94,85,74,29.83,29.69,22,3,22,0.05
2013-12-5,66.6,52.1,34.0,61.8,48.4,31.4,92,87,78,30.12,29.76,26,8,27,1.06
2013-12-6,34.2,31.2,27.9,31.9,29.0,25.8,92,92,90,30.36,30.07,31,6,31,0.44
2013-12-7,28.9,26.1,22.5,25.8,22.8,18.0,92,87,80,30.58,30.36,17,4,17,0.00
2013-12-8,34.3,28.2,23.1,32.9,25.6,18.7,94,90,82,30.50,30.04,19,4,19,0.00
2013-12-9,34.3,31.1,26.6,32.9,27.5,22.5,94,86,78,30.25,30.03,24,7,24,0.00
2013-12-10,31.2,25.6,20.0,22.9,20.3,17.2,90,80,66,30.39,30.15,29,6,29,0.00
2013-12-11,39.4,26.5,15.5,27.1,20.0,12.9,92,78,52,30.53,30.32,34,6,34,0.01
2013-12-12,29.9,21.0,11.4,14.7,11.3,7.7,86,67,42,30.60,30.38,19,4,19,0.00
2013-12-13,44.0,31.0,18.3,32.1,19.5,12.1,90,64,36,30.39,30.12,29,3,29,0.17
2013-12-14,44.2,38.1,34.1,42.5,35.6,31.4,94,91,76,30.15,29.70,31,5,31,0.73
2013-12-15,34.8,30.4,27.9,32.3,25.8,22.7,90,83,78,30.15,29.90,32,10,32,0.00
2013-12-16,43.7,34.8,29.5,34.8,30.0,25.1,92,83,70,30.15,30.01,24,4,24,0.00
2013-12-17,42.1,35.5,29.8,35.9,30.6,24.4,88,82,74,30.22,29.99,26,5,26,0.00
2013-12-18,42.7,32.5,25.0,25.8,21.5,15.8,88,66,38,30.32,30.10,24,5,24,0.00
2013-12-19,60.3,48.1,31.9,41.9,31.3,20.7,64,52,46,30.15,29.98,41,6,41,0.00
2013-12-20,61.6,55.9,50.2,56.3,47.0,32.3,90,73,46,29.98,29.83,31,6,31,0.08
2013-12-21,70.9,62.6,58.0,63.2,58.7,55.2,94,87,76,29.84,29.49,42,7,42,1.06
2013-12-22,59.8,54.3,39.3,57.7,49.9,36.1,94,85,70,30.06,29.57,34,8,34,0.31
2013-12-23,39.2,33.8,26.8,36.1,27.0,20.1,90,76,62,30.41,30.05,27,7,27,0.05
2013-12-24,27.0,21.6,16.3,21.2,14.3,9.3,86,73,54,30.58,30.40,31,5,31,0.00
2013-12-25,39.3,28.7,16.8,21.3,16.4,12.3,86,62,36,30.51,30.25,15,4,19,0.00
2013-12-26,43.2,35.0,25.8,27.4,24.4,20.6,86,66,46,30.41,30.23,27,5,27,0.02
2013-12-27,51.6,35.3,22.1,29.5,24.7,19.8,92,68,42,30.46,30.34,20,3,20,0.01
2013-12-28,50.7,38.9,27.3,35.0,26.9,21.1,82,63,42,30.36,30.05,15,1,15,0.03
2013-12-29,47.2,39.8,32.4,40.3,36.3,28.2,94,88,74,30.07,29.84,31,6,31,0.53
2013-12-30,32.4,28.9,23.3,28.5,23.5,17.5,88,80,68,30.26,30.06,19,5,19,0.00
2013-12-31,37.7,28.6,22.4,22.5,19.6,16.7,82,69,50,30.44,30.24,27,6,27,0.00
2014-1-1,48.5,36.2,27.6,29.4,25.6,-4.1,84,67,38,30.32,30.00,22,3,22,0.00
2014-1-2,37.2,28.2,14.5,34.3,23.7,8.7,92,83,70,30.33,29.81,41,7,41,0.14